INMARSAT 2-F3

导读

INMARSAT 2-F3(国际海事卫星2-F3)由国际海事卫星组织(IM)主导,于1991年12月16日发射升空,属于第二代国际海事通信卫星系列。该卫星运行于地球静止轨道,主要为全球海事领域提供稳定的语音、数据通信服务,支撑海上船舶导航、遇险救援与航运管理,助力远洋航行安全与海事通信网络覆盖,服务全球海洋运输与应急通信需求,是早期全球海事卫星通信系统的重要组成部分。

基本信息
目录编号:
21814
目录名称:
INMARSAT 2-F3
国际标识:
1991-084B
轨道中心:
EARTH
卫星名称:
INMARSAT 2-F3
卫星全名:
--
卫星状态:
在轨 (已飞行12597 天)
发射日期:
1991-12-16 UTC
国别 :
(Inmarsat)
星等 :
--
轨道信息
数据来源 国际轨道数据 AOE轨道数据
星历时间 2026-06-12T06:27:56+0800
20小时前
查看轨道信息
2026-06-09T00:00:00+0800
4天前
查看轨道信息
半长轴 43387.69km 43387.81km
偏心率 0.0014743 0.0014426
轨道倾角 14.128° 14.126°
近地点辐角 76.842° 76.321°
升交点赤经 13.487° 13.509°
平近点角 287.190° 237.040°
近地点 36945.586km 36947.081km
远地点 37073.52km 37072.265km
周期 1499.027分钟 1499.033分钟
每日圈数 0.960623 0.960619
详细信息
使用方式:
暂无
2D轨道图
3D轨道图
轨道高度分析图
轨道倾角分析图
轨道综合分析图
查看轨道综合分析图